time_stamp(utc),avg(mph),gust(mph),direction(deg),12m_air_temp(f),sonic_u(cm/s),sonic_v(cm/s),sonic_w(cm/s),pressure,2m_air_temp(f),pyranometer(W/m^2)
"2019-02-25 00:02:07+00",12.7,14.7,,46.5,-566,111,27,997.07,45.2,0
"2019-02-25 00:07:07+00",13.5,14.5,,46.5,-597,87,24,997.25,45,0
"2019-02-25 00:12:07+00",13.7,16.7,,46.5,-610,0,17,997.16,45,0
"2019-02-25 00:17:07+00",13.2,15.2,,46.9,-575,-34,29,997.25,45.2,0
"2019-02-25 00:22:07+00",14.5,16.5,,47.1,-634,-35,21,997.32,45.4,0
"2019-02-25 00:27:07+00",13.4,15.4,,47.1,-597,25,34,997.46,45.5,0
"2019-02-25 00:32:07+00",12.7,14.7,,46.7,-552,161,37,997.75,45.4,0
"2019-02-25 00:37:07+00",13.6,14.6,,46.3,-590,129,28,997.89,45,0
"2019-02-25 00:42:07+00",11.6,12.6,,45.8,-511,19,17,997.94,44.6,0
"2019-02-25 00:47:07+00",10.6,13.6,,46,-470,37,21,997.89,44.5,0
"2019-02-25 00:52:07+00",11.4,12.4,,46,-506,46,14,997.92,44.4,0
"2019-02-25 00:57:07+00",11.2,12.2,,45.8,-488,115,27,997.93,44.2,0
"2019-02-25 01:02:07+00",14.9,17.9,,46.2,-637,205,63,997.86,44.2,0
"2019-02-25 01:07:07+00",20.1,22.1,,47.9,-885,231,50,997.95,45.2,0
"2019-02-25 01:12:07+00",22.1,25.1,,48.4,-967,248,64,997.94,45.9,0
"2019-02-25 01:17:07+00",21.7,24.7,,48.3,-955,194,48,997.95,46.2,0
"2019-02-25 01:22:07+00",20.7,22.7,,48.3,-905,198,64,998.06,46.4,0
"2019-02-25 01:27:07+00",25.9,29.9,,48.8,-1131,298,77,998.14,46.6,0
"2019-02-25 01:32:07+00",24.0,29.0,,48.6,-1028,349,72,998.25,46.9,0
"2019-02-25 01:37:07+00",23.3,27.3,,48.1,-996,372,66,998.29,46.8,0
"2019-02-25 01:42:07+00",22.5,25.5,,47.5,-884,465,70,998.14,46.5,0
"2019-02-25 01:47:07+00",24.8,28.8,,47.3,-966,556,70,998.16,46.2,0
"2019-02-25 01:52:07+00",23.3,25.3,,47,-937,476,53,998.35,45.9,0
"2019-02-25 01:57:07+00",24.2,29.2,,46.9,-973,480,51,998.47,45.7,0
"2019-02-25 02:02:07+00",25.0,31.0,,46.8,-1005,474,93,998.51,45.6,0
"2019-02-25 02:07:07+00",26.2,29.2,,47.2,-1110,456,63,998.74,45.8,0
"2019-02-25 02:12:07+00",23.7,26.7,,46.9,-978,412,67,998.85,45.8,0
"2019-02-25 02:17:07+00",28.1,31.1,,47,-1175,479,78,998.8,45.7,0
"2019-02-25 02:22:07+00",25.8,29.8,,47.2,-1096,466,67,998.74,45.8,0
"2019-02-25 02:27:07+00",21.7,24.7,,46.8,-901,359,83,998.89,45.6,0
"2019-02-25 02:32:07+00",23.6,27.6,,46.5,-1001,349,66,998.87,45.3,0
"2019-02-25 02:37:07+00",25.6,32.6,,46.4,-1105,318,74,999.1,45,0
"2019-02-25 02:42:07+00",25.1,31.1,,46.6,-1082,339,87,999.23,45.2,0
"2019-02-25 02:47:07+00",28.7,32.7,,46.3,-1252,348,55,999.48,45,0
"2019-02-25 02:52:07+00",34.9,38.9,,47.3,-1501,447,81,999.26,45.5,0
"2019-02-25 02:57:07+00",41.7,46.7,,47.8,-1827,323,126,999.08,45.9,0
"2019-02-25 03:02:07+00",36.7,44.7,,47.6,-1570,505,118,999.3,46.3,0
"2019-02-25 03:07:07+00",41.1,45.1,,47.6,-1745,621,99,999.19,46.3,0
"2019-02-25 03:12:07+00",42.6,49.6,,47.5,-1765,713,113,999.26,46.2,0
"2019-02-25 03:17:07+00",44.7,51.7,,47.7,-1876,705,113,999.2,46.2,0
"2019-02-25 03:22:07+00",38.4,45.4,,47,-1623,587,114,999.47,45.9,0
"2019-02-25 03:27:07+00",41.6,48.6,,47,-1772,588,111,999.59,45.5,0
"2019-02-25 03:32:07+00",33.4,40.4,,46.8,-1434,487,116,999.9,45.5,0
"2019-02-25 03:37:07+00",30.2,33.2,,46.3,-1281,405,86,1000.06,45.1,0
"2019-02-25 03:42:07+00",30.8,33.8,,46.3,-1354,342,75,1000.05,45,0
"2019-02-25 03:47:07+00",30.1,36.1,,46,-1303,347,86,1000.08,44.7,0
"2019-02-25 03:52:07+00",27.7,30.7,,45.8,-1223,226,58,1000.16,44.5,0
"2019-02-25 03:57:07+00",27.8,33.8,,46.1,-1220,261,70,1000.26,44.7,0
"2019-02-25 04:02:07+00",25.4,28.4,,45.7,-1128,236,102,1000.42,44.4,0
"2019-02-25 04:07:07+00",22.5,26.5,,45.3,-982,187,47,1000.68,44.2,0
"2019-02-25 04:12:07+00",21.8,24.8,,45.2,-957,242,79,1000.62,44,0
"2019-02-25 04:17:07+00",23.4,26.4,,45.1,-1038,199,70,1000.66,43.9,0
"2019-02-25 04:22:07+00",21.9,23.9,,45,-967,174,55,1000.8,43.8,0
"2019-02-25 04:27:07+00",23.3,28.3,,45,-1036,170,64,1000.77,43.7,0
"2019-02-25 04:32:07+00",25.2,33.2,,45.1,-1108,72,48,1000.77,43.8,0
"2019-02-25 04:37:07+00",31.4,36.4,,45.6,-1383,46,52,1000.7,44,0
"2019-02-25 04:42:07+00",30.4,36.4,,45.6,-1337,8,64,1000.8,44.4,0
"2019-02-25 04:47:07+00",40.7,49.7,,45.9,-1747,495,132,1000.57,44.4,0
"2019-02-25 04:52:07+00",35.3,40.3,,45.8,-1562,299,100,1000.81,44.5,0
"2019-02-25 04:57:07+00",30.4,35.4,,45.6,-1352,223,85,1000.94,44.5,0
"2019-02-25 05:02:07+00",25.1,30.1,,44.9,-1115,128,56,1001.06,43.9,0
"2019-02-25 05:07:07+00",21.4,25.4,,44.5,-951,14,29,1001.1,43.5,0
"2019-02-25 05:12:07+00",26.3,30.3,,45,-1142,-95,34,1001.23,43.6,0
"2019-02-25 05:17:07+00",25.1,30.1,,44.8,-1111,86,72,1001.18,43.7,0
"2019-02-25 05:22:07+00",34.1,41.1,,45,-1523,89,67,1001.11,43.8,0
"2019-02-25 05:27:07+00",39.0,49.0,,45.3,-1714,288,89,1001.07,44,0
"2019-02-25 05:32:07+00",30.6,34.6,,44.9,-1358,108,64,1001.28,43.9,0
"2019-02-25 05:37:07+00",31.3,36.3,,44.6,-1378,70,87,1001.23,43.7,0
"2019-02-25 05:42:07+00",33.4,41.4,,44.9,-1484,227,61,1001.3,43.8,0
"2019-02-25 05:47:07+00",30.6,36.6,,44.7,-1347,291,91,1001.33,43.6,0
"2019-02-25 05:52:07+00",33.2,37.2,,44.9,-1465,247,70,1001.29,43.6,0
"2019-02-25 05:57:07+00",25.7,28.7,,44.2,-1137,51,36,1001.44,43.2,0
"2019-02-25 06:02:07+00",21.4,26.4,,43.9,-940,-28,71,1001.54,42.8,0
"2019-02-25 06:07:07+00",30.6,35.6,,44.6,-1356,-7,72,1001.49,43.1,0
"2019-02-25 06:12:07+00",25.7,28.7,,44.1,-1132,-30,57,1001.5,43,0
"2019-02-25 06:17:07+00",27.8,31.8,,44,-1228,66,54,1001.49,42.9,0
"2019-02-25 06:22:07+00",23.5,29.5,,43.7,-1024,-21,64,1001.66,42.8,0
"2019-02-25 06:27:07+00",29.1,35.1,,44.3,-1287,3,53,1001.67,43.1,0
"2019-02-25 06:32:07+00",24.8,29.8,,43.8,-1097,-4,37,1001.85,42.8,0
"2019-02-25 06:37:07+00",24.0,27.0,,43.7,-1046,-96,52,1001.8,42.6,0
"2019-02-25 06:42:07+00",22.9,26.9,,43.5,-1001,-32,71,1001.81,42.4,0
"2019-02-25 06:47:07+00",24.8,26.8,,43.8,-1095,-26,41,1001.71,42.4,0
"2019-02-25 06:52:07+00",23.1,25.1,,43.5,-1021,-37,71,1001.72,42.5,0
"2019-02-25 06:57:07+00",24.0,29.0,,43.4,-1054,4,51,1001.76,42.3,0
"2019-02-25 07:02:07+00",24.2,29.2,,43.6,-1064,-40,64,1001.72,42.3,0
"2019-02-25 07:07:07+00",24.0,30.0,,43.2,-1053,-30,56,1001.79,42,0
"2019-02-25 07:12:07+00",21.9,24.9,,43.1,-959,-37,38,1001.87,42,0
"2019-02-25 07:17:07+00",19.2,21.2,,42.9,-840,-54,38,1001.87,41.8,0
"2019-02-25 07:22:07+00",19.5,22.5,,43.1,-848,-79,50,1001.94,41.9,0
"2019-02-25 07:27:07+00",23.0,26.0,,42.9,-1012,-31,52,1001.89,41.7,0
"2019-02-25 07:32:07+00",20.9,26.9,,42.5,-930,33,78,1001.88,41.5,0
"2019-02-25 07:37:07+00",24.1,27.1,,42.9,-1056,-8,44,1001.83,41.7,0
"2019-02-25 07:42:07+00",24.1,26.1,,42.8,-1068,56,56,1001.86,41.6,0
"2019-02-25 07:47:07+00",24.8,31.8,,42.7,-1110,54,33,1002.03,41.5,0
"2019-02-25 07:52:07+00",26.6,30.6,,42.9,-1162,124,63,1001.95,41.7,0
"2019-02-25 07:57:07+00",36.1,43.1,,43.3,-1593,251,99,1001.74,42,0
"2019-02-25 08:02:07+00",31.1,35.1,,43.1,-1376,220,85,1002.05,42,0
"2019-02-25 08:07:07+00",32.0,36.0,,43.2,-1418,209,66,1002,42,0
"2019-02-25 08:12:07+00",29.7,33.7,,42.7,-1315,116,42,1002.15,41.7,0
"2019-02-25 08:17:07+00",28.7,32.7,,42.8,-1260,185,51,1002.24,41.6,0
"2019-02-25 08:22:07+00",25.0,29.0,,42.3,-1088,132,54,1002.4,41.4,0
"2019-02-25 08:27:07+00",23.1,26.1,,42.2,-1020,138,73,1002.48,41.2,0
"2019-02-25 08:32:07+00",28.6,32.6,,42.6,-1269,130,76,1002.47,41.2,0
"2019-02-25 08:37:07+00",24.2,29.2,,42.3,-1073,81,50,1002.56,41.1,0
"2019-02-25 08:42:07+00",28.9,32.9,,42.2,-1278,103,76,1002.47,41.1,0
"2019-02-25 08:47:07+00",28.3,31.3,,42.2,-1245,120,78,1002.44,41.1,0
"2019-02-25 08:52:07+00",25.5,29.5,,42,-1140,239,103,1002.52,41,0
"2019-02-25 08:57:07+00",30.5,37.5,,42.1,-1348,254,61,1002.42,41,0
"2019-02-25 09:02:07+00",31.0,34.0,,42,-1358,270,68,1002.56,41,0
"2019-02-25 09:07:07+00",36.4,41.4,,42,-1598,373,109,1002.64,40.9,0
"2019-02-25 09:12:07+00",38.6,44.6,,42.1,-1702,374,104,1002.71,41,0
"2019-02-25 09:17:07+00",31.9,38.9,,41.9,-1394,323,98,1002.99,40.9,0
"2019-02-25 09:22:07+00",33.9,39.9,,41.9,-1458,430,90,1003.02,40.8,0
"2019-02-25 09:27:07+00",34.0,39.0,,41.7,-1447,456,90,1003.08,40.7,0
"2019-02-25 09:32:07+00",37.0,42.0,,41.8,-1552,579,101,1003.03,40.8,0
"2019-02-25 09:37:07+00",31.3,34.3,,41.5,-1347,443,99,1003.13,40.6,0
"2019-02-25 09:42:07+00",28.2,32.2,,41.2,-1213,409,95,1003.39,40.3,0
"2019-02-25 09:47:07+00",26.6,31.6,,41.1,-1133,358,98,1003.51,40.1,0
"2019-02-25 09:52:07+00",29.9,34.9,,41.1,-1275,422,71,1003.57,40.1,0
"2019-02-25 09:57:07+00",19.8,23.8,,40.5,-875,198,87,1003.74,39.8,0
"2019-02-25 10:02:07+00",20.0,22.0,,40.5,-873,185,60,1003.84,39.4,0
"2019-02-25 10:07:07+00",31.4,39.4,,40.8,-1369,-20,63,1003.9,39.5,0
"2019-02-25 10:12:07+00",30.8,37.8,,40.8,-1371,99,80,1003.88,39.6,0
"2019-02-25 10:17:07+00",32.0,37.0,,40.8,-1417,131,63,1003.86,39.7,0
"2019-02-25 10:22:07+00",39.7,46.7,,40.7,-1719,359,115,1004,39.6,0
"2019-02-25 10:27:07+00",37.5,45.5,,40.6,-1627,385,92,1004.15,39.7,0
"2019-02-25 10:32:07+00",37.7,46.7,,40.4,-1611,584,128,1004.19,39.5,0
"2019-02-25 10:37:07+00",32.2,37.2,,40.2,-1368,485,129,1004.51,39.4,0
"2019-02-25 10:42:07+00",33.4,38.4,,40,-1414,526,106,1004.55,39.1,0
"2019-02-25 10:47:07+00",29.4,32.4,,39.8,-1248,470,101,1004.84,38.9,0
"2019-02-25 10:52:07+00",31.2,35.2,,39.8,-1320,465,78,1004.92,38.8,0
"2019-02-25 10:57:07+00",33.2,40.2,,39.6,-1372,592,132,1004.9,38.6,0
"2019-02-25 11:02:07+00",29.8,35.8,,39.4,-1250,479,99,1005.18,38.5,0
"2019-02-25 11:07:07+00",36.9,42.9,,39.3,-1529,650,133,1005.05,38.4,0
"2019-02-25 11:12:07+00",41.0,47.0,,39.1,-1760,568,96,1005.12,38.3,0
"2019-02-25 11:17:07+00",38.7,46.7,,39,-1700,415,115,1005.14,38.2,0
"2019-02-25 11:22:07+00",34.6,37.6,,38.8,-1529,333,97,1005.33,38,0
"2019-02-25 11:27:07+00",36.3,42.3,,38.9,-1598,386,99,1005.46,38,0
"2019-02-25 11:32:07+00",37.9,46.9,,38.8,-1651,410,67,1005.57,37.9,0
"2019-02-25 11:37:07+00",41.7,45.7,,38.9,-1816,461,118,1005.51,37.9,0
"2019-02-25 11:42:07+00",34.9,42.9,,38.7,-1486,455,77,1005.75,37.8,0
"2019-02-25 11:47:07+00",30.1,35.1,,38.4,-1291,409,79,1006.03,37.6,0
"2019-02-25 11:52:07+00",29.7,37.7,,38.4,-1284,303,79,1006.12,37.5,0
"2019-02-25 11:57:07+00",33.3,38.3,,38.5,-1446,312,97,1006.19,37.6,0
"2019-02-25 12:02:07+00",35.4,39.4,,38.4,-1551,337,98,1006.3,37.4,0
"2019-02-25 12:07:07+00",28.1,34.1,,38.2,-1191,400,132,1006.56,37.3,0
"2019-02-25 12:12:07+00",30.3,34.3,,38.3,-1342,331,111,1006.65,37.4,4.3
"2019-02-25 12:17:07+00",30.7,37.7,,38.3,-1368,242,114,1006.78,37.4,34.5
"2019-02-25 12:22:07+00",32.9,36.9,,38.4,-1441,384,115,1006.95,37.6,42.5
"2019-02-25 12:27:07+00",30.4,36.4,,38.3,-1299,441,101,1007.02,37.7,54.4
"2019-02-25 12:32:07+00",38.4,42.4,,38.4,-1690,378,93,1006.89,37.9,64.8
"2019-02-25 12:37:07+00",38.0,47.0,,38.4,-1639,551,134,1006.76,37.9,74.8
"2019-02-25 12:42:07+00",28.8,34.8,,38.3,-1222,420,143,1007.35,38,84.9
"2019-02-25 12:47:07+00",34.6,38.6,,38.4,-1497,468,126,1007.18,38,97.3
"2019-02-25 12:52:07+00",32.1,36.1,,38.3,-1356,562,127,1007.45,38.1,107
"2019-02-25 12:57:07+00",36.6,42.6,,38.4,-1588,255,102,1007.5,38.2,118.7
"2019-02-25 13:02:07+00",44.3,51.3,,38.5,-1793,848,129,1007.55,38.2,128.9
"2019-02-25 13:07:07+00",43.2,49.2,,38.4,-1777,783,119,1007.75,38.2,141.2
"2019-02-25 13:12:07+00",30.8,33.8,,38.5,-1347,340,105,1007.96,38.3,151
"2019-02-25 13:17:07+00",33.8,43.8,,38.5,-1465,366,107,1008.06,38.4,162.1
"2019-02-25 13:22:07+00",33.6,38.6,,38.5,-1471,356,94,1008.16,38.5,172.2
"2019-02-25 13:27:07+00",38.2,43.2,,38.5,-1628,546,99,1008.21,38.5,182.9
"2019-02-25 13:32:07+00",30.5,39.5,,38.6,-1342,327,122,1008.39,38.7,191
"2019-02-25 13:37:07+00",29.8,33.8,,38.6,-1275,421,107,1008.6,38.8,198.9
"2019-02-25 13:42:07+00",35.9,42.9,,38.5,-1565,389,90,1008.45,38.8,208.6
"2019-02-25 13:47:07+00",43.1,49.1,,38.4,-1903,424,172,1008.37,38.6,218.7
"2019-02-25 13:52:07+00",49.7,55.7,,38.3,-2188,528,133,1008.35,38.5,224.6
"2019-02-25 13:57:07+00",41.7,49.7,,38.2,-1815,516,139,1008.59,38.5,230
"2019-02-25 14:02:07+00",44.2,49.2,,38.2,-1827,764,177,1008.65,38.3,239.8
"2019-02-25 14:07:07+00",41.0,47.0,,38.3,-1687,725,131,1008.67,38.6,246.3
"2019-02-25 14:12:07+00",42.2,47.2,,38.4,-1781,625,102,1008.77,38.7,245.3
"2019-02-25 14:17:07+00",40.3,44.3,,38.4,-1570,901,93,1008.86,38.9,259.7
"2019-02-25 14:22:07+00",48.7,55.7,,38.2,-2030,847,160,1008.72,38.6,268.7
"2019-02-25 14:27:07+00",36.9,47.9,,38.3,-1488,731,118,1009.07,38.6,272.8
"2019-02-25 14:32:07+00",34.1,42.1,,38.3,-1399,629,115,1009.11,38.8,280.4
"2019-02-25 14:37:07+00",34.0,37.0,,38.4,-1333,728,115,1009.22,39,287.6
"2019-02-25 14:42:07+00",39.8,45.8,,38.4,-1567,872,111,1009.23,39.1,292.9
"2019-02-25 14:47:07+00",35.7,40.7,,38.5,-1504,567,73,1009.27,39.3,292.2
"2019-02-25 14:52:07+00",30.8,35.8,,38.9,-1315,469,127,1009.43,39.8,305.9
"2019-02-25 14:57:07+00",34.3,39.3,,38.6,-1438,578,89,1009.3,39.6,313.2
"2019-02-25 15:02:07+00",39.0,46.0,,38.3,-1734,188,98,1009.24,39.6,319.4
"2019-02-25 15:07:07+00",40.0,47.0,,38.6,-1766,313,109,1009.28,39.7,325.6
"2019-02-25 15:12:07+00",37.8,45.8,,38.4,-1576,640,139,1009.32,39.5,333.5
"2019-02-25 15:17:07+00",43.2,49.2,,38.2,-1836,565,115,1009.31,39.2,338.9
"2019-02-25 15:22:07+00",42.1,46.1,,38,-1678,837,106,1009.46,39,346.7
"2019-02-25 15:27:07+00",41.4,47.4,,38.3,-1826,485,145,1009.46,39.2,351.9
"2019-02-25 15:32:07+00",37.1,42.1,,38.4,-1570,578,97,1009.58,39.3,357.8
"2019-02-25 15:37:07+00",40.4,50.4,,38.5,-1754,437,112,1009.55,39.4,364.4
"2019-02-25 15:42:07+00",34.3,41.3,,38.8,-1462,430,129,1009.73,39.7,368.5
"2019-02-25 15:47:07+00",39.8,44.8,,38.8,-1643,709,98,1009.84,39.8,376
"2019-02-25 15:52:07+00",37.4,43.4,,38.8,-1583,560,114,1010.01,39.9,380.9
"2019-02-25 15:57:07+00",42.3,47.3,,38.8,-1876,248,122,1009.85,39.8,386.1
"2019-02-25 16:02:07+00",40.4,47.4,,38.7,-1780,316,120,1010.12,39.8,389.7
"2019-02-25 16:07:07+00",43.1,49.1,,38.9,-1828,643,116,1009.96,39.8,395.9
"2019-02-25 16:12:07+00",36.1,42.1,,38.9,-1573,374,103,1010.26,40,398
"2019-02-25 16:17:07+00",39.8,45.8,,39.1,-1609,755,124,1010.34,40.1,402.1
"2019-02-25 16:22:07+00",37.4,41.4,,38.9,-1633,468,122,1010.45,39.9,406.1
"2019-02-25 16:27:07+00",44.1,48.1,,38.8,-1931,441,101,1010.38,39.8,404.5
"2019-02-25 16:32:07+00",43.2,50.2,,39,-1721,874,137,1010.62,39.8,403.6
"2019-02-25 16:37:07+00",36.4,42.4,,39.3,-1500,643,118,1010.78,40.2,401.4
"2019-02-25 16:42:07+00",40.2,44.2,,39.1,-1644,757,112,1010.83,40,417.7
"2019-02-25 16:47:07+00",33.9,38.9,,39.6,-1401,603,125,1011.15,40.5,415.6
"2019-02-25 16:52:07+00",40.4,48.4,,39.4,-1688,656,146,1010.98,40.4,420.1
"2019-02-25 16:57:07+00",38.9,44.9,,39.6,-1621,661,136,1011.18,40.7,420.6
"2019-02-25 17:02:07+00",42.1,48.1,,39.5,-1776,677,137,1011.22,40.6,420.1
"2019-02-25 17:07:07+00",44.5,50.5,,39.5,-1934,485,123,1011.23,40.5,421.3
"2019-02-25 17:12:07+00",40.8,45.8,,39.9,-1765,545,139,1011.26,40.8,418.2
"2019-02-25 17:17:07+00",35.7,40.7,,39.9,-1571,456,134,1011.43,40.9,420
"2019-02-25 17:22:07+00",35.9,40.9,,40,-1387,858,111,1011.34,41.1,419.2
"2019-02-25 17:27:07+00",39.6,45.6,,40,-1668,624,121,1011.31,41.1,419.2
"2019-02-25 17:32:07+00",37.4,42.4,,40.4,-1500,740,95,1011.34,41.4,415.5
"2019-02-25 17:37:07+00",37.4,42.4,,40.2,-1451,837,127,1011.33,41.4,410
"2019-02-25 17:42:07+00",36.5,40.5,,40.1,-1465,754,99,1011.36,41.3,412.8
"2019-02-25 17:47:07+00",40.6,46.6,,40.3,-1573,936,90,1011.32,41.5,406.7
"2019-02-25 17:52:07+00",34.6,42.6,,40,-1312,855,135,1011.38,41.2,404.6
"2019-02-25 17:57:07+00",42.3,51.3,,40,-1542,1137,128,1011.38,41.2,402.2
"2019-02-25 18:02:07+00",41.3,48.3,,40.1,-1555,1014,147,1011.46,41.1,400.2
"2019-02-25 18:07:07+00",41.5,46.5,,40.1,-1656,843,113,1011.33,41.1,396.7
"2019-02-25 18:12:07+00",37.4,45.4,,40.5,-1517,706,102,1011.65,41.6,390.7
"2019-02-25 18:17:07+00",35.7,40.7,,40.5,-1408,726,114,1011.71,41.6,384.7
"2019-02-25 18:22:07+00",42.8,51.8,,40.7,-1717,850,122,1011.74,41.7,378.5
"2019-02-25 18:27:07+00",40.6,45.6,,40.7,-1677,730,135,1011.74,41.6,375.7
"2019-02-25 18:32:07+00",35.6,41.6,,40.9,-1457,653,123,1011.94,41.8,371.3
"2019-02-25 18:37:07+00",35.3,40.3,,40.9,-1345,843,99,1011.93,41.9,362.6
"2019-02-25 18:42:07+00",45.8,50.8,,40.7,-1890,792,112,1011.78,41.7,357.6
"2019-02-25 18:47:07+00",40.6,46.6,,41,-1629,808,105,1012.11,41.8,349.7
"2019-02-25 18:52:07+00",35.0,38.0,,41,-1363,754,112,1012.05,42,343.1
"2019-02-25 18:57:07+00",31.9,36.9,,41.1,-1300,621,86,1012.22,42.1,339.3
"2019-02-25 19:02:07+00",32.1,36.1,,41.1,-1303,608,70,1012.42,42.3,331.2
"2019-02-25 19:07:07+00",34.0,37.0,,41,-1387,605,103,1012.47,42.2,325.6
"2019-02-25 19:12:07+00",36.7,40.7,,41,-1503,673,88,1012.55,42.2,320.5
"2019-02-25 19:17:07+00",40.0,46.0,,40.7,-1718,499,130,1012.29,41.9,321.1
"2019-02-25 19:22:07+00",36.7,44.7,,40.5,-1583,497,134,1012.51,41.7,319.1
"2019-02-25 19:27:07+00",34.4,40.4,,41,-1407,644,141,1012.64,41.9,305.5
"2019-02-25 19:32:07+00",37.7,40.7,,40.8,-1562,664,127,1012.82,42,295.1
"2019-02-25 19:37:07+00",39.5,45.5,,40.9,-1730,444,103,1012.67,42,288.7
"2019-02-25 19:42:07+00",40.8,49.8,,41.1,-1683,732,121,1013,42.1,281.3
"2019-02-25 19:47:07+00",33.6,44.6,,41.1,-1418,533,119,1013.24,42.2,277.3
"2019-02-25 19:52:07+00",29.9,33.9,,41.3,-1214,594,94,1013.4,42.3,273.3
"2019-02-25 19:57:07+00",34.8,39.8,,40.9,-1473,526,112,1013.34,42.1,265.6
"2019-02-25 20:02:07+00",31.1,36.1,,41.2,-1301,544,107,1013.52,42.4,259
"2019-02-25 20:07:07+00",31.0,35.0,,41.2,-1292,509,107,1013.58,42.4,253.2
"2019-02-25 20:12:07+00",36.7,40.7,,41,-1560,547,108,1013.62,42.2,245.7
"2019-02-25 20:17:07+00",33.6,38.6,,41.1,-1409,468,128,1013.62,42.2,239
"2019-02-25 20:22:07+00",34.9,37.9,,41.3,-1424,660,107,1013.78,42.3,232.7
"2019-02-25 20:27:07+00",37.7,41.7,,41.4,-1498,766,109,1013.86,42.2,225.6
"2019-02-25 20:32:07+00",30.4,33.4,,41.4,-1194,623,74,1013.91,42.4,218.4
"2019-02-25 20:37:07+00",37.7,40.7,,41.3,-1510,709,117,1013.82,42.3,210
"2019-02-25 20:42:07+00",39.4,44.4,,41.1,-1660,660,115,1013.81,42,202.2
"2019-02-25 20:47:07+00",35.6,40.6,,41.1,-1499,558,108,1014.02,41.9,192.2
"2019-02-25 20:52:07+00",38.6,43.6,,41.1,-1601,692,118,1014.09,41.8,182.8
"2019-02-25 20:57:07+00",36.2,41.2,,41.1,-1475,691,100,1014.28,41.7,175.8
"2019-02-25 21:02:07+00",37.9,43.9,,41.2,-1552,688,139,1014.27,41.7,165.9
"2019-02-25 21:07:07+00",43.9,46.9,,41,-1833,741,136,1014.25,41.5,156.6
"2019-02-25 21:12:07+00",38.9,42.9,,40.9,-1647,627,128,1014.46,41.4,146.2
"2019-02-25 21:17:07+00",40.5,45.5,,41,-1627,811,95,1014.6,41.4,136.8
"2019-02-25 21:22:07+00",40.9,45.9,,41.2,-1671,765,102,1014.8,41.4,124.9
"2019-02-25 21:27:07+00",40.8,46.8,,41.2,-1648,789,109,1014.8,41.3,115.8
"2019-02-25 21:32:07+00",33.5,38.5,,41.1,-1303,762,122,1015.03,41.2,105.1
"2019-02-25 21:37:07+00",39.6,45.6,,41.1,-1609,806,111,1015.01,41.2,94.4
"2019-02-25 21:42:07+00",38.8,45.8,,41.1,-1564,781,104,1015.16,41.1,83.6
"2019-02-25 21:47:07+00",30.6,37.6,,41,-1280,560,111,1015.33,41.1,73.1
"2019-02-25 21:52:07+00",27.0,31.0,,40.9,-1082,583,110,1015.62,41,63
"2019-02-25 21:57:07+00",37.3,45.3,,41,-1457,829,123,1015.62,40.9,53
"2019-02-25 22:02:07+00",36.8,42.8,,40.8,-1402,892,154,1015.94,40.6,43.4
"2019-02-25 22:07:07+00",38.0,45.0,,40.7,-1510,786,124,1016.11,40.4,33.9
"2019-02-25 22:12:07+00",41.5,49.5,,40.7,-1616,886,115,1016.22,40.4,24.5
"2019-02-25 22:17:07+00",33.2,39.2,,40.5,-1330,682,78,1016.49,40.1,17.7
"2019-02-25 22:22:07+00",37.6,41.6,,40.4,-1492,805,120,1016.65,39.9,11
"2019-02-25 22:27:07+00",33.5,36.5,,40.3,-1313,740,81,1016.87,39.8,4.2
"2019-02-25 22:32:07+00",30.4,34.4,,40.1,-1213,659,73,1017.01,39.5,0
"2019-02-25 22:37:07+00",30.9,34.9,,39.9,-1167,759,98,1017.12,39.3,0
"2019-02-25 22:42:07+00",31.5,35.5,,39.9,-1172,777,89,1017.4,39.1,0
"2019-02-25 22:47:07+00",23.9,28.9,,39.5,-918,570,75,1017.57,38.7,0
"2019-02-25 22:52:07+00",24.1,26.1,,39.3,-939,547,68,1017.74,38.4,0
"2019-02-25 22:57:07+00",23.4,26.4,,39.3,-866,569,79,1017.96,38.3,0
"2019-02-25 23:02:07+00",22.8,24.8,,39.1,-853,569,56,1018.11,38.1,0
"2019-02-25 23:07:07+00",21.2,24.2,,39,-809,508,48,1018.21,37.9,0
"2019-02-25 23:12:07+00",23.2,27.2,,38.8,-891,575,68,1018.37,37.6,0
"2019-02-25 23:17:07+00",25.5,30.5,,38.8,-961,611,47,1018.43,37.5,0
"2019-02-25 23:22:07+00",25.4,28.4,,38.9,-982,609,76,1018.57,37.7,0
"2019-02-25 23:27:07+00",24.3,28.3,,38.8,-951,540,56,1018.63,37.8,0
"2019-02-25 23:32:07+00",31.9,36.9,,39.1,-1258,678,83,1018.53,37.9,0
"2019-02-25 23:37:07+00",25.1,30.1,,38.5,-999,549,89,1018.87,37.5,0
"2019-02-25 23:42:07+00",26.6,29.6,,38.5,-1054,555,74,1018.95,37.4,0
"2019-02-25 23:47:07+00",25.4,30.4,,38.3,-1024,515,92,1018.84,37.2,0
"2019-02-25 23:52:07+00",24.1,26.1,,38.2,-1011,434,75,1018.97,37,0
"2019-02-25 23:57:07+00",25.6,30.6,,38.2,-1060,449,71,1019.06,37,0
